[[{"header":{"parameterUnit":"m.s-1","parameterCategory":1,"la1":30.2991,"la2":30.254,"lo1":-89.0895,"lo2":-89.0444,"dy":0.0017,"dx":0.0017,"nx":28,"ny":28,"refTime":"2024-05-24T21:00:00:Z","depth":0,"parameterNumber":2,"parameterNumberName":"U-component_of_WINDS"},"data":[0,0,0,0,0,0,0,0,0,0,0,0,0,0,0,0,0,0,0,0,0,0,0,0,0,0,0,0,0,0,0,0,0,0,0,0,0,0,0,0,0,0,0,0,0,0,0,0,0,0,0,0,0,0,0,0,0,0,-0.0486,-0.0485,0,-0.04,-0.0399,-0.0398,-0.0353,-0.0353,-0.0353,-0.0353,-0.0262,-0.0259,-0.0257,0,0,0,0,0,0,0,0,0,0,0,0,0,-0.0608,-0.0606,-0.0486,-0.0485,-0.0483,-0.04,-0.0399,-0.0398,-0.0353,-0.0353,-0.0353,-0.0353,-0.0263,-0.026,-0.0257,0,0,0,0,0,0,0,0,0,0,0,0,0,-0.0542,-0.0606,-0.0486,-0.0451,-0.0447,-0.04,-0.0399,-0.0397,-0.0353,-0.0353,-0.0353,-0.0353,-0.0263,-0.026,-0.0256,-0.0237,0,0,-0.0246,-0.0244,0,0,0,0,0,0,0,0,-0.0546,-0.0537,-0.0457,-0.0453,-0.0449,-0.0387,-0.0409,-0.0343,-0.0353,-0.0389,-0.0353,-0.0353,-0.0303,-0.0296,-0.028,-0.0232,-0.0228,-0.0245,-0.0243,-0.0242,-0.0241,0,0,0,0,0,0,0,-0.055,-0.0541,-0.0452,-0.0456,-0.0451,-0.0439,-0.043,-0.0396,-0.0347,-0.0385,-0.0382,-0.0373,-0.0301,-0.0284,-0.0278,-0.0227,-0.0245,-0.0242,-0.024,-0.0239,-0.0158,-0.0158,0,0,0,0,0,0,-0.0561,-0.0545,-0.0454,-0.0449,-0.0498,-0.0437,-0.0426,-0.0407,-0.0348,-0.0339,-0.0373,-0.0371,-0.029,-0.0282,-0.0275,-0.0247,-0.0242,-0.0238,-0.0236,-0.0158,-0.0158,-0.0158,0,0,0,0,0,0,-0.0564,-0.0553,-0.0458,-0.0496,-0.0483,-0.0435,-0.0414,-0.0405,-0.0388,-0.0338,-0.0329,-0.0365,-0.029,-0.028,-0.0247,-0.0243,-0.0237,-0.0234,-0.0158,-0.0158,-0.0158,-0.0192,0,0,0,0,0,0,-0.0567,-0.0555,-0.0547,-0.0496,-0.0481,-0.0432,-0.0413,-0.0404,-0.0383,-0.0379,-0.0328,-0.0319,-0.0289,-0.0252,-0.0243,-0.0238,-0.0231,-0.0158,-0.0158,-0.0158,-0.0191,-0.0193,-0.0195,0,0,0,0,0,-0.0572,-0.0559,-0.0547,-0.0536,-0.0471,-0.0432,-0.0423,-0.0389,-0.0383,-0.0374,-0.0342,-0.0321,-0.0245,-0.0249,-0.0238,-0.0233,-0.0158,-0.0158,-0.0158,-0.019,-0.0193,-0.0195,0,0,0,0,0,0,-0.061,-0.0552,-0.0538,-0.0508,-0.0476,-0.0424,-0.0413,-0.0393,-0.0361,-0.0359,-0.0317,-0.0306,-0.0277,-0.0251,-0.0256,-0.021,-0.0199,-0.0197,-0.0228,-0.023,-0.0232,-0.0238,-0.0228,0,0,0,0,0,-0.0615,-0.0589,-0.054,-0.0519,-0.0503,-0.0461,-0.0443,-0.042,-0.0383,-0.0369,-0.0334,-0.0299,-0.0267,-0.0247,-0.0215,-0.0188,-0.0175,-0.0178,-0.018,-0.0182,-0.0181,-0.0164,-0.0164,-0.0158,-0.0158,-0.0158,0,0,-0.0625,-0.0591,-0.0576,-0.0526,-0.0497,-0.0471,-0.045,-0.0422,-0.0401,-0.0364,-0.0331,-0.0305,-0.0263,-0.0232,-0.0217,-0.021,-0.018,-0.0182,-0.0184,-0.0181,-0.0164,-0.0164,-0.0165,-0.0158,-0.0158,-0.0158,0,0,-0.063,-0.0601,-0.0581,-0.0553,-0.0511,-0.0483,-0.0478,-0.043,-0.0411,-0.0378,-0.0349,-0.0324,-0.027,-0.0242,-0.022,-0.0215,-0.0194,-0.0205,-0.0216,-0.02,-0.02,-0.0201,-0.0198,-0.0198,-0.0204,-0.0204,-0.0204,0,-0.0647,-0.0607,-0.0572,-0.0546,-0.0525,-0.0491,-0.047,-0.0444,-0.0394,-0.0379,-0.0373,-0.0305,-0.0274,-0.0236,-0.0235,-0.0219,-0.0211,-0.0211,-0.0203,-0.0203,-0.0203,-0.02,-0.0199,-0.0206,-0.0206,-0.0205,-0.0205,0,-0.063,-0.0602,-0.0591,-0.0544,-0.0521,-0.0497,-0.0458,-0.0439,-0.0418,-0.0391,-0.0357,-0.0319,-0.0279,-0.0268,-0.0247,-0.0228,-0.0225,-0.0211,-0.02,-0.0206,-0.0202,-0.0201,-0.0208,-0.0208,-0.0207,-0.0207,0,0,-0.0655,-0.059,-0.0587,-0.0565,-0.0516,-0.0494,-0.0469,-0.043,-0.0414,-0.0381,-0.0358,-0.0314,-0.0301,-0.0277,-0.0252,-0.0239,-0.0236,-0.0227,-0.0225,-0.0229,-0.0211,-0.0221,-0.0221,-0.0223,-0.0222,-0.0222,-0.0215,0,-0.0653,-0.0607,-0.0575,-0.0541,-0.0515,-0.0483,-0.0461,-0.0428,-0.0402,-0.0376,-0.0346,-0.0316,-0.0302,-0.0287,-0.0272,-0.024,-0.0232,-0.024,-0.02,-0.0199,-0.0211,-0.0219,-0.0229,-0.0224,-0.0213,-0.0213,-0.0213,0,-0.0643,-0.0612,-0.0575,-0.053,-0.0517,-0.0498,-0.0461,-0.0436,-0.0398,-0.038,-0.0354,-0.0329,-0.03,-0.0292,-0.0251,-0.0257,-0.0239,-0.0221,-0.022,-0.0214,-0.0206,-0.0213,-0.0222,-0.0221,-0.0211,-0.0211,-0.0211,0,-0.0665,-0.0613,-0.0584,-0.0567,-0.0513,-0.0501,-0.0477,-0.044,-0.0419,-0.0386,-0.0372,-0.0336,-0.0316,-0.0288,-0.0254,-0.0251,-0.0216,-0.0205,-0.02,-0.0201,-0.0193,-0.0194,-0.0199,-0.0183,-0.0183,-0.0183,-0.0183,0,-0.0664,-0.0643,-0.0594,-0.0576,-0.0551,-0.0515,-0.0491,-0.0465,-0.0432,-0.0409,-0.0379,-0.0357,-0.0313,-0.0286,-0.0259,-0.0229,-0.0221,-0.0205,-0.0198,-0.0207,-0.0209,-0.0194,-0.0193,-0.0183,-0.0183,-0.0183,-0.0183,0,-0.0684,-0.065,-0.0617,-0.0569,-0.0556,-0.054,-0.0499,-0.048,-0.0453,-0.0423,-0.0414,-0.0371,-0.0338,-0.0301,-0.0255,-0.0237,-0.0208,-0.0199,-0.0221,-0.0217,-0.0213,-0.0214,-0.0208,-0.0205,-0.0193,-0.0193,-0.0193,0,-0.0686,-0.0669,-0.062,-0.0602,-0.058,-0.0552,-0.0531,-0.0495,-0.0473,-0.043,-0.0416,-0.0381,-0.035,-0.0298,-0.0262,-0.0226,-0.0215,-0.0215,-0.0209,-0.0219,-0.0214,-0.0215,-0.0213,-0.0217,-0.0217,-0.0218,-0.0218,0,-0.0692,-0.0677,-0.0647,-0.0613,-0.0588,-0.0559,-0.0528,-0.0515,-0.0473,-0.0451,-0.0417,-0.0393,-0.0347,-0.0311,-0.0272,-0.0247,-0.0225,-0.022,-0.0217,-0.0226,-0.024,-0.0231,-0.0226,-0.022,-0.022,-0.022,-0.022,-0.022,-0.0702,-0.0686,-0.0649,-0.0617,-0.0591,-0.0563,-0.0543,-0.0514,-0.0485,-0.0445,-0.0425,-0.0391,-0.0353,-0.0298,-0.0274,-0.0246,-0.0239,-0.0235,-0.0233,-0.0233,-0.0235,-0.0245,-0.0239,-0.0239,-0.0239,-0.0239,-0.0238,0,-0.0707,-0.0682,-0.0653,-0.0612,-0.0587,-0.057,-0.0535,-0.0516,-0.0486,-0.0454,-0.0425,-0.0385,-0.0351,-0.0313,-0.0276,-0.0261,-0.025,-0.0253,-0.0253,-0.0247,-0.0243,-0.025,-0.0262,-0.0262,-0.0262,-0.0262,-0.0262,-0.0262,-0.0707,-0.0678,-0.0657,-0.0615,-0.0589,-0.0556,-0.0538,-0.0512,-0.0486,-0.0443,-0.0415,-0.0391,-0.0356,-0.0316,-0.0284,-0.0274,-0.0261,-0.0266,-0.0253,-0.025,-0.0248,-0.0246,-0.0251,-0.0264,-0.0264,-0.0259,-0.0259,-0.0259]},{"header":{"parameterUnit":"m.s-1","parameterCategory":1,"la1":30.2991,"la2":30.254,"lo1":-89.0895,"lo2":-89.0444,"dy":0.0017,"dx":0.0017,"nx":28,"ny":28,"refTime":"2024-05-24T21:00:00:Z","depth":0,"parameterNumber":3,"parameterNumberName":"V-component_of_WINDS"},"data":[0,0,0,0,0,0,0,0,0,0,0,0,0,0,0,0,0,0,0,0,0,0,0,0,0,0,0,0,0,0,0,0,0,0,0,0,0,0,0,0,0,0,0,0,0,0,0,0,0,0,0,0,0,0,0,0,0,0,3.8499,3.8499,0,3.8458,3.8458,3.8457,3.845,3.845,3.845,3.8451,3.8403,3.8401,3.84,0,0,0,0,0,0,0,0,0,0,0,0,0,3.8565,3.8564,3.8499,3.8499,3.8498,3.8459,3.8458,3.8457,3.845,3.845,3.845,3.8451,3.8403,3.8401,3.84,0,0,0,0,0,0,0,0,0,0,0,0,0,3.8532,3.8564,3.8499,3.849,3.8489,3.8459,3.8458,3.8457,3.845,3.845,3.8451,3.8451,3.8404,3.8402,3.8399,3.8374,0,0,3.8392,3.8391,0,0,0,0,0,0,0,0,3.8534,3.8529,3.8492,3.849,3.8489,3.846,3.8464,3.8429,3.8449,3.8464,3.8451,3.8451,3.8421,3.8417,3.8408,3.8372,3.837,3.8392,3.839,3.8389,3.8389,0,0,0,0,0,0,0,3.8536,3.8531,3.8483,3.8491,3.8489,3.8486,3.8482,3.8457,3.844,3.8463,3.8462,3.8458,3.842,3.8411,3.8407,3.8369,3.8392,3.839,3.8388,3.8387,3.831,3.831,0,0,0,0,0,0,3.8541,3.8533,3.8484,3.8482,3.8513,3.8484,3.8479,3.8469,3.844,3.8437,3.8457,3.8458,3.8414,3.841,3.8405,3.8374,3.8389,3.8387,3.8386,3.8311,3.831,3.831,0,0,0,0,0,0,3.8542,3.8536,3.8486,3.8507,3.85,3.8483,3.847,3.8467,3.8458,3.8436,3.8433,3.8451,3.8415,3.8409,3.8383,3.8372,3.8386,3.8384,3.8312,3.8311,3.831,3.8312,0,0,0,0,0,0,3.8544,3.8537,3.8529,3.8507,3.8499,3.8465,3.847,3.8466,3.8454,3.8454,3.8429,3.8425,3.8415,3.8386,3.838,3.8369,3.8382,3.8312,3.8311,3.831,3.8313,3.8311,3.831,0,0,0,0,0,3.8546,3.8529,3.8528,3.8522,3.8489,3.8465,3.846,3.845,3.8454,3.8444,3.843,3.8426,3.8375,3.8384,3.8377,3.8365,3.8313,3.8312,3.831,3.8313,3.8312,3.831,0,0,0,0,0,0,3.8548,3.8526,3.8525,3.85,3.8485,3.8464,3.8451,3.8448,3.8429,3.843,3.8416,3.841,3.8385,3.8372,3.8382,3.8339,3.8344,3.8341,3.8349,3.8347,3.8345,3.8349,3.838,0,0,0,0,0,3.8546,3.853,3.8511,3.8491,3.8484,3.8469,3.8458,3.8452,3.8434,3.8427,3.8411,3.8392,3.8372,3.8359,3.8339,3.8311,3.8305,3.83,3.8298,3.8297,3.8295,3.8279,3.8277,3.8305,3.8305,3.8305,0,0,3.854,3.8526,3.8517,3.8491,3.8478,3.8461,3.8463,3.8444,3.8431,3.8423,3.8398,3.8386,3.8364,3.8337,3.8325,3.8326,3.8286,3.8296,3.8295,3.8293,3.8278,3.8275,3.8273,3.8304,3.8304,3.8304,0,0,3.8521,3.851,3.8492,3.848,3.8461,3.8452,3.8448,3.8427,3.8419,3.8395,3.8389,3.8371,3.8336,3.8321,3.8309,3.8286,3.8281,3.8279,3.8272,3.8257,3.8255,3.8253,3.8244,3.8241,3.8277,3.8277,3.8277,0,3.8516,3.8491,3.8483,3.8465,3.8454,3.8449,3.843,3.8418,3.8392,3.8384,3.8387,3.8344,3.8328,3.8298,3.8293,3.8283,3.8277,3.8282,3.8256,3.8254,3.8252,3.8243,3.824,3.8277,3.8277,3.8277,3.8277,0,3.8486,3.8469,3.8457,3.8435,3.8423,3.8404,3.8392,3.838,3.8374,3.8364,3.8338,3.8321,3.8297,3.8289,3.8283,3.8258,3.826,3.8259,3.8263,3.8249,3.8241,3.8238,3.8277,3.8277,3.8277,3.8277,0,0,3.8466,3.8442,3.8437,3.8428,3.8407,3.8393,3.8374,3.8353,3.8343,3.8325,3.8308,3.828,3.828,3.8266,3.8258,3.8245,3.8227,3.8246,3.8245,3.8243,3.8198,3.8198,3.8195,3.8225,3.8224,3.8223,3.82,0,3.8445,3.8413,3.8406,3.8378,3.8362,3.8357,3.834,3.8325,3.8315,3.8298,3.8286,3.8266,3.8268,3.826,3.8246,3.8232,3.8218,3.8234,3.8207,3.8206,3.8213,3.8191,3.819,3.8169,3.8197,3.8196,3.8196,0,3.8415,3.84,3.8372,3.8354,3.8347,3.8332,3.8313,3.8298,3.828,3.8273,3.8259,3.8252,3.8231,3.8237,3.8206,3.8217,3.8206,3.8197,3.8196,3.8193,3.82,3.8186,3.8162,3.8159,3.8191,3.8191,3.8191,0,3.8403,3.8376,3.8355,3.8347,3.8326,3.8316,3.8306,3.8289,3.8277,3.826,3.8252,3.8231,3.8219,3.8203,3.819,3.8196,3.8161,3.8166,3.8153,3.8154,3.8146,3.8146,3.8119,3.8139,3.8139,3.8139,3.8139,0,3.838,3.8363,3.835,3.8337,3.8317,3.8308,3.8288,3.8278,3.8263,3.8247,3.824,3.8225,3.821,3.8192,3.8182,3.8158,3.8153,3.8146,3.8143,3.8146,3.8147,3.8138,3.8139,3.8138,3.8139,3.8139,3.8139,0,3.8363,3.8354,3.8331,3.8314,3.8309,3.8295,3.8279,3.8266,3.8256,3.8236,3.8231,3.8215,3.8194,3.818,3.8152,3.8146,3.8119,3.8117,3.8126,3.8125,3.8114,3.8115,3.8079,3.8074,3.8098,3.8098,3.8097,0,3.8349,3.8336,3.8318,3.8308,3.8299,3.8282,3.8271,3.8261,3.8249,3.8229,3.8217,3.8196,3.8179,3.8145,3.813,3.8109,3.8106,3.8095,3.8102,3.8106,3.8105,3.8106,3.8104,3.8093,3.8093,3.8093,3.8093,0,3.8325,3.8321,3.8306,3.8289,3.8277,3.8262,3.8248,3.824,3.8227,3.8214,3.8193,3.818,3.8153,3.8132,3.811,3.8097,3.8092,3.8091,3.8087,3.809,3.8095,3.8092,3.8123,3.8091,3.8092,3.8092,3.8092,3.8092,3.8308,3.8297,3.8283,3.8266,3.8255,3.8242,3.8229,3.8218,3.8202,3.8181,3.8175,3.8154,3.8136,3.8106,3.8094,3.8075,3.8076,3.8071,3.8069,3.8068,3.8068,3.8099,3.8071,3.8071,3.8071,3.8071,3.8071,0,3.8283,3.8275,3.826,3.8241,3.8228,3.8227,3.8211,3.82,3.8182,3.8166,3.815,3.8127,3.8106,3.809,3.8068,3.8057,3.8054,3.8052,3.8052,3.8049,3.8068,3.8074,3.8054,3.8054,3.8054,3.8054,3.8054,3.8054,3.8269,3.825,3.8244,3.8219,3.8209,3.819,3.8181,3.8169,3.8157,3.8131,3.8115,3.8106,3.809,3.8067,3.8048,3.8044,3.8036,3.8034,3.8028,3.8046,3.8048,3.805,3.8055,3.8032,3.8032,3.8011,3.8011,3.8011]}]]